RH
75 74 83 84 85 83 82 81 77 79 81 77 76 77 78 80 63 64 66 63 66 66 69 70 67 64 66 66 65 66 65 63 62
82 79 85 86 85 84 83 82 81 78 79 76 76 77 82 60 62 64 65 65 68 66 69 69 69 67 67 68 64 65 68 67 66
85 83 85 86 83 82 83 82 81 81 77 74 78 86 82 60 61 64 65 74 76 67 68 70 70 70 70 68 70 70 69 69 68
86 87 85 83 84 85 86 86 84 83 82 83 85 89 84 55 55 62 64 81 80 67 69 70 70 70 70 71 71 70 69 68 68
92 90 89 88 88 88 87 87 87 86 87 88 88 90 87 59 59 54 59 82 77 72 70 70 70 71 72 72 72 72 69 68 67
77 85 94 92 89 89 88 87 88 90 90 90 90 93 69 67 62 56 69 79 77 74 72 73 71 70 72 73 72 72 71 69 68
83 90 97 96 92 90 88 88 89 91 66 68 88 68 67 70 68 62 75 69 74 75 74 77 75 73 73 74 74 73 72 71 70
82 88 87 80 90 80 81 77 70 68 69 69 67 68 68 67 68 71 83 75 66 70 73 78 78 77 75 74 74 75 74 74 74
90 94 92 88 82 80 81 81 74 74 70 67 66 66 68 70 71 72 90 83 73 66 68 73 79 77 78 76 75 77 77 77 77
81 87 91 94 92 89 84 82 79 76 71 70 73 68 65 62 64 63 91 89 83 76 70 67 71 74 77 78 78 80 80 79 81
78 77 84 89 94 92 88 87 89 88 78 73 75 76 65 63 64 63 63 91 88 82 78 73 69 70 71 74 78 81 82 82 82
58 76 81 84 94 94 94 88 88 91 92 87 79 78 77 76 73 69 76 71 91 88 78 74 73 72 72 71 75 78 81 82 82
58 69 73 72 95 97 98 98 97 98 97 96 93 93 87 86 72 70 69 68 64 75 85 82 78 78 75 70 70 75 77 82 83
59 67 66 66 95 95 98 98 97 97 96 95 94 91 90 87 72 69 69 68 67 60 72 86 87 86 81 71 68 72 75 77 79
60 64 67 71 86 97 98 98 97 95 97 97 96 92 90 88 79 74 67 64 65 62 61 59 59 85 83 78 73 72 76 78 78
61 63 69 73 79 88 91 93 98 98 98 99 99 97 91 86 85 75 70 69 68 66 65 62 60 59 83 82 80 77 74 78 80
71 70 69 71 81 83 91 92 96 94 97 94 92 82 69 66 69 72 72 69 68 69 68 64 63 63 61 68 83 84 76 74 73
73 76 80 82 85 87 89 89 98 98 99 98 85 83 78 76 69 67 67 65 64 61 62 63 62 62 62 71 73 87 85 78 74
84 85 83 87 89 90 91 92 96 97 98 99 98 92 83 92 74 72 70 64 62 61 59 58 58 62 64 75 83 85 87 80 76
91 86 92 95 95 96 95 96 93 90 95 98 99 96 94 86 82 76 63 59 60 58 60 59 58 58 65 71 78 90 87 82 80
Wind_Speed
10 10 7 5 8 9 10 9 10 10 11 12 11 9 6 4 5 4 4 4 4 5 6 6 6 6 6 6 6 6 6 5 6
10 9 8 6 9 11 11 11 11 11 11 12 11 9 6 4 5 6 5 4 4 6 6 6 6 5 5 6 5 5 5 5 5
10 9 9 9 11 13 13 13 12 12 13 12 11 9 7 5 5 6 5 5 6 6 6 6 6 6 5 5 5 5 4 4 4
11 10 10 12 12 13 13 13 14 14 14 12 11 10 9 5 4 5 4 6 8 7 7 7 7 6 6 5 5 5 5 4 4
10 10 11 12 13 14 13 13 12 12 12 10 11 10 9 7 6 5 5 8 9 9 8 8 8 8 7 7 7 7 6 6 5
11 10 10 12 12 13 14 14 12 10 9 9 10 10 6 7 5 4 7 10 12 12 10 9 9 9 9 8 8 8 8 7 7
8 8 10 12 12 12 14 14 13 10 8 7 8 7 8 7 7 5 8 10 13 13 13 12 12 11 11 11 11 10 10 10 9
6 5 6 8 10 8 10 11 10 12 9 8 8 8 8 6 6 7 10 11 12 13 14 12 13 13 12 13 13 12 12 12 11
5 4 6 7 6 10 10 8 11 13 13 12 11 10 8 6 5 7 10 12 13 15 14 15 13 15 14 15 14 13 14 13 13
6 6 6 5 6 8 9 10 10 12 13 12 11 11 11 10 6 5 10 13 14 14 16 16 16 17 16 16 16 15 15 16 15
7 7 7 7 6 7 9 10 10 9 12 13 12 10 11 11 10 7 7 13 15 16 17 17 18 17 18 18 17 14 16 17 17
10 8 6 8 6 7 7 10 9 8 7 13 12 11 10 10 10 9 6 7 13 16 18 18 18 18 18 19 17 17 17 17 18
10 7 8 7 6 5 6 6 7 7 7 8 9 7 8 10 11 9 8 7 7 8 15 16 18 17 18 20 20 19 19 17 19
9 8 7 8 6 6 5 5 6 6 7 7 6 8 8 8 8 9 9 9 8 6 8 12 14 15 17 20 22 21 21 20 19
9 8 9 8 6 5 3 4 4 5 5 5 6 7 7 7 7 7 7 8 8 8 9 7 8 11 15 18 20 22 21 21 21
10 8 8 7 8 8 7 4 5 4 4 3 3 3 6 7 6 5 5 7 7 8 8 6 7 7 12 17 19 20 22 20 19
9 8 8 8 6 7 6 7 3 5 7 3 3 4 3 2 3 4 4 5 4 5 7 8 10 9 8 11 13 17 20 21 21
11 8 7 7 6 6 6 7 5 4 2 2 2 4 2 1 1 3 3 3 4 6 7 9 10 11 10 10 11 14 16 20 20
8 7 6 5 3 3 4 4 4 3 3 3 5 7 3 2 1 1 0 2 6 7 8 9 11 11 9 11 12 12 13 18 20
9 3 3 3 3 4 6 5 6 6 3 3 4 1 2 1 2 6 5 4 5 7 8 11 11 11 9 8 8 9 14 18 20
Wind_Direction
222 224 221 235 195 179 163 158 157 161 168 170 169 172 182 206 204 191 172 188 172 150 147 149 147 137 134 130 127 125 118 115 103
238 227 229 222 197 189 184 178 175 176 180 181 179 176 166 195 188 195 196 204 208 168 167 167 164 155 150 144 144 139 138 130 124
248 234 223 225 218 203 194 188 189 187 187 192 188 174 178 187 190 193 202 220 238 192 188 188 185 179 174 167 166 164 155 148 143
253 246 229 227 225 221 211 202 196 195 199 201 183 179 181 196 199 209 213 217 236 210 205 205 207 204 199 192 190 190 186 180 179
256 248 238 233 236 228 219 213 208 209 205 189 185 183 189 211 201 208 220 231 239 244 212 221 221 219 215 212 211 211 211 207 206
264 252 241 240 237 229 217 212 215 212 213 210 202 194 209 211 219 224 217 224 230 245 228 218 233 234 230 227 228 225 227 227 225
270 266 241 241 241 231 222 215 215 210 219 218 218 221 217 215 217 220 223 234 233 235 250 218 219 230 235 233 234 235 235 235 235
275 265 254 242 232 239 231 225 224 219 216 214 215 223 225 223 221 223 221 233 238 238 242 250 229 226 230 236 237 238 241 243 241
260 249 253 251 241 233 233 228 225 223 222 221 219 218 219 222 225 227 222 234 242 245 248 248 242 233 233 233 237 239 240 242 246
274 255 245 235 236 234 231 230 230 228 226 224 223 222 223 225 225 233 211 229 238 245 252 253 254 246 236 238 235 230 232 238 240
277 273 257 240 225 234 231 225 223 227 226 224 222 223 226 230 228 234 237 224 234 241 244 248 250 250 251 240 244 236 235 231 235
269 269 260 253 229 229 232 233 224 217 218 228 221 222 225 234 233 239 244 245 230 236 244 247 247 246 249 252 249 243 239 238 237
268 261 263 265 233 224 224 216 212 214 215 216 218 212 219 229 239 238 240 246 255 240 246 247 249 249 248 251 253 253 250 239 237
263 257 253 256 232 217 220 217 212 206 217 211 214 213 219 227 228 235 242 244 247 254 252 244 245 249 251 258 261 262 258 253 248
270 255 251 250 240 219 180 209 211 229 210 201 214 208 214 224 229 239 245 247 247 250 256 269 265 249 255 260 265 268 268 265 258
273 258 248 245 233 211 216 200 224 225 210 146 218 221 220 224 225 234 248 262 265 264 264 264 267 268 247 252 256 261 265 266 264
272 253 246 243 236 235 202 213 209 214 189 196 145 187 166 206 209 216 226 249 267 270 273 274 271 269 269 261 246 250 264 270 270
282 259 240 237 230 227 197 214 198 192 217 273 248 156 183 191 140 168 187 241 260 272 276 270 271 270 269 267 262 245 250 264 273
269 259 253 224 196 217 176 170 147 148 184 137 39 32 66 66 279 105 255 273 290 292 287 282 278 272 267 264 262 263 257 265 277
345 292 140 136 124 116 131 118 104 102 129 91 100 71 15 249 258 291 283 268 276 296 300 297 292 291 293 291 303 279 280 290 292